Tracking 29033 objects as of 22-Jun-2024
HD Live streaming from Space Station
objects crossing your sky now

MOLNIYA 3-8

Track MOLNIYA 3-8 now!
MOLNIYA 3-8 is classified as:


NORAD ID: 10455
Int'l Code: 1977-105A
Perigee: 1,435.9 km
Apogee: 38,968.2 km
Inclination: 63.6 °
Period: 718.5 minutes
Semi major axis: 26573 km
RCS: 13.5006 m2 (large)
Launch date: October 28, 1977
Source: Commonwealth of Independent States (former USSR) (CIS)
Launch site: PLESETSK MISSILE AND SPACE COMPLEX (PKMTR)
Your satellite tracking list
Your tracking list is empty




NASA's NSSDC Master Catalog

Two Line Element Set (TLE):
1 10455U 77105A   24173.25045394 -.00000241  00000-0  00000-0 0  9992
2 10455  63.6276 255.0381 7062107 282.0674  12.8716  2.00419810341887
Source of the keplerian elements: AFSPC